• In Belgium
  • List of Countries
  • For 7 days
  • Water Temperature
  • Satellite Maps
  • Weather Map
  • Weather Widgets
  • user-avatar
    Login

    Hourly Weather Byala

    Today, 20 October, Saturday

    Time Temperature Precipitation Wind Pressure Humidity
    00:00 +16°C° 0 mm 1 mps 753 mmHg 85%
    01:00 +16°C° 0 mm 1 mps 753 mmHg 84%
    02:00 +15°C° 0 mm 1 mps 753 mmHg 83%
    03:00 +15°C° 0 mm 1 mps 753 mmHg 83%
    04:00 +15°C° 0 mm 2 mps 753 mmHg 83%
    05:00 +15°C° 0 mm 2 mps 753 mmHg 83%
    06:00 +15°C° 0 mm 2 mps 753 mmHg 80%
    07:00 +14°C° 0 mm 3 mps 753 mmHg 77%
    08:00 +16°C° 0 mm 3 mps 753 mmHg 72%
    09:00 +17°C° 0 mm 3 mps 753 mmHg 65%
    10:00 +19°C° 0 mm 4 mps 753 mmHg 58%
    11:00 +20°C° 0 mm 4 mps 754 mmHg 51%
    12:00 +21°C° 0 mm 4 mps 753 mmHg 48%
    13:00 +21°C° 0 mm 3 mps 753 mmHg 46%
    14:00 +22°C° 0 mm 3 mps 753 mmHg 43%
    15:00 +21°C° 0 mm 3 mps 753 mmHg 46%
    16:00 +20°C° 0 mm 2 mps 753 mmHg 49%
    17:00 +19°C° 0 mm 2 mps 753 mmHg 51%
    18:00 +18°C° 0 mm 2 mps 753 mmHg 55%
    19:00 +17°C° 0 mm 2 mps 753 mmHg 59%
    20:00 +16°C° 0 mm 2 mps 753 mmHg 63%
    21:00 +16°C° 0 mm 3 mps 753 mmHg 66%
    22:00 +14°C° 0 mm 3 mps 753 mmHg 70%
    23:00 +14°C° 0 mm 4 mps 753 mmHg 73%

    Tomorrow, 21 October, Sunday

    Time Temperature Precipitation Wind Pressure Humidity
    00:00 +14°C° 0 mm 4 mps 753 mmHg 76%
    01:00 +13°C° 0 mm 5 mps 753 mmHg 78%
    02:00 +13°C° 0 mm 5 mps 753 mmHg 80%
    03:00 +13°C° 0 mm 5 mps 753 mmHg 82%
    04:00 +12°C° 0 mm 5 mps 752 mmHg 83%
    05:00 +12°C° 0 mm 5 mps 752 mmHg 85%
    06:00 +12°C° 0 mm 4 mps 752 mmHg 82%
    07:00 +13°C° 0 mm 4 mps 753 mmHg 80%
    08:00 +13°C° 0 mm 4 mps 753 mmHg 77%
    09:00 +15°C° 0 mm 4 mps 753 mmHg 70%
    10:00 +18°C° 0 mm 4 mps 753 mmHg 62%
    11:00 +20°C° 0 mm 4 mps 753 mmHg 55%
    12:00 +20°C° 0.1 mm 4 mps 753 mmHg 53%
    13:00 +21°C° 0.1 mm 3 mps 753 mmHg 51%
    14:00 +21°C° 0.1 mm 3 mps 753 mmHg 49%
    15:00 +20°C° 0.1 mm 3 mps 753 mmHg 53%
    16:00 +19°C° 0.1 mm 3 mps 753 mmHg 58%
    17:00 +18°C° 0.1 mm 3 mps 753 mmHg 62%
    18:00 +18°C° 0.1 mm 3 mps 753 mmHg 66%
    19:00 +17°C° 0.1 mm 2 mps 754 mmHg 69%
    20:00 +16°C° 0.1 mm 2 mps 754 mmHg 73%
    21:00 +16°C° 0 mm 2 mps 754 mmHg 74%
    22:00 +16°C° 0 mm 2 mps 754 mmHg 74%
    23:00 +15°C° 0 mm 2 mps 754 mmHg 75%

    Day after tomorrow, 22 October, Monday

    Time Temperature Precipitation Wind Pressure Humidity
    00:00 +15°C° 0 mm 2 mps 754 mmHg 76%
    01:00 +13°C° 0 mm 3 mps 754 mmHg 77%
    02:00 +13°C° 0 mm 3 mps 754 mmHg 78%
    03:00 +12°C° 0 mm 4 mps 754 mmHg 79%
    04:00 +12°C° 0 mm 4 mps 754 mmHg 80%
    05:00 +10°C° 0 mm 5 mps 754 mmHg 81%
    06:00 +12°C° 0 mm 5 mps 755 mmHg 79%
    07:00 +12°C° 0 mm 5 mps 755 mmHg 77%
    08:00 +11°C° 0 mm 6 mps 755 mmHg 75%
    09:00 +14°C° 0 mm 5 mps 755 mmHg 68%
    10:00 +15°C° 0 mm 5 mps 755 mmHg 62%
    11:00 +17°C° 0 mm 5 mps 755 mmHg 55%
    12:00 +17°C° 0 mm 5 mps 755 mmHg 52%
    13:00 +19°C° 0 mm 5 mps 754 mmHg 49%
    14:00 +19°C° 0 mm 5 mps 754 mmHg 46%
    15:00 +19°C° 0 mm 4 mps 754 mmHg 49%
    16:00 +18°C° 0 mm 4 mps 754 mmHg 52%
    17:00 +17°C° 0 mm 4 mps 754 mmHg 55%
    18:00 +16°C° 0 mm 3 mps 754 mmHg 60%
    19:00 +14°C° 0 mm 3 mps 754 mmHg 65%
    20:00 +13°C° 0 mm 3 mps 754 mmHg 69%
    21:00 +12°C° 0 mm 3 mps 754 mmHg 70%
    22:00 +13°C° 0 mm 2 mps 754 mmHg 70%
    23:00 +13°C° 0 mm 2 mps 754 mmHg 71%

    23 October, Tuesday

    Time Temperature Precipitation Wind Pressure Humidity
    00:00 +12°C° 0 mm 2 mps 754 mmHg 70%
    01:00 +11°C° 0 mm 3 mps 754 mmHg 69%
    02:00 +11°C° 0 mm 3 mps 754 mmHg 69%
    03:00 +10°C° 0 mm 3 mps 754 mmHg 68%
    04:00 +10°C° 0 mm 3 mps 754 mmHg 68%
    05:00 +10°C° 0 mm 3 mps 754 mmHg 68%
    06:00 +10°C° 0 mm 3 mps 754 mmHg 65%
    07:00 +11°C° 0 mm 3 mps 754 mmHg 63%
    08:00 +11°C° 0 mm 3 mps 754 mmHg 60%
    09:00 +13°C° 0 mm 3 mps 754 mmHg 55%
    10:00 +16°C° 0 mm 3 mps 754 mmHg 49%
    11:00 +18°C° 0 mm 2 mps 754 mmHg 43%
    12:00 +18°C° 0 mm 3 mps 754 mmHg 41%
    13:00 +19°C° 0 mm 3 mps 753 mmHg 40%
    14:00 +19°C° 0 mm 3 mps 753 mmHg 38%
    15:00 +18°C° 0 mm 3 mps 753 mmHg 42%
    16:00 +17°C° 0 mm 3 mps 752 mmHg 47%
    17:00 +16°C° 0 mm 3 mps 752 mmHg 51%
    18:00 +15°C° 0 mm 2 mps 752 mmHg 58%
    19:00 +14°C° 0 mm 2 mps 752 mmHg 65%
    20:00 +13°C° 0 mm 2 mps 752 mmHg 71%
    21:00 +13°C° 0 mm 1 mps 752 mmHg 74%
    22:00 +13°C° 0 mm 1 mps 752 mmHg 77%
    23:00 +12°C° 0 mm 1 mps 751 mmHg 79%

    24 October, Wednesday

    Time Temperature Precipitation Wind Pressure Humidity
    00:00 +12°C° 0 mm 1 mps 751 mmHg 80%
    01:00 +12°C° 0 mm 1 mps 750 mmHg 82%
    02:00 +11°C° 0 mm 1 mps 750 mmHg 83%
    03:00 +10°C° 0 mm 2 mps 749 mmHg 82%
    04:00 +10°C° 0 mm 2 mps 749 mmHg 81%
    05:00 +10°C° 0 mm 3 mps 748 mmHg 80%
    06:00 +11°C° 0 mm 3 mps 748 mmHg 74%
    07:00 +11°C° 0 mm 4 mps 747 mmHg 68%
    08:00 +12°C° 0 mm 4 mps 747 mmHg 62%
    09:00 +13°C° 0 mm 5 mps 747 mmHg 52%
    10:00 +15°C° 0 mm 6 mps 746 mmHg 43%
    11:00 +17°C° 0 mm 6 mps 745 mmHg 33%
    12:00 +17°C° 0 mm 6 mps 745 mmHg 34%
    13:00 +18°C° 0 mm 7 mps 744 mmHg 36%
    14:00 +18°C° 0 mm 7 mps 743 mmHg 37%
    15:00 +17°C° 0 mm 7 mps 743 mmHg 39%
    16:00 +17°C° 0 mm 7 mps 742 mmHg 42%
    17:00 +16°C° 0 mm 6 mps 742 mmHg 44%
    18:00 +15°C° 0 mm 8 mps 742 mmHg 46%
    19:00 +15°C° 0 mm 9 mps 742 mmHg 48%
    20:00 +13°C° 0 mm 10 mps 742 mmHg 50%
    21:00 +12°C° 0 mm 10 mps 742 mmHg 52%
    22:00 +12°C° 0 mm 11 mps 743 mmHg 55%
    23:00 +11°C° 0 mm 11 mps 743 mmHg 57%

    25 October, Thursday

    Time Temperature Precipitation Wind Pressure Humidity
    00:00 +9°C° 0 mm 10 mps 743 mmHg 51%
    01:00 +7°C° 0 mm 8 mps 744 mmHg 45%
    02:00 +6°C° 0 mm 7 mps 744 mmHg 39%
    03:00 +5°C° 0 mm 7 mps 745 mmHg 39%
    04:00 +5°C° 0 mm 6 mps 745 mmHg 40%
    05:00 +4°C° 0 mm 6 mps 746 mmHg 40%
    06:00 +4°C° 0 mm 6 mps 746 mmHg 40%
    07:00 +4°C° 0 mm 6 mps 747 mmHg 39%
    08:00 +5°C° 0 mm 7 mps 748 mmHg 39%
    09:00 +6°C° 0 mm 7 mps 748 mmHg 36%
    10:00 +8°C° 0 mm 6 mps 748 mmHg 33%
    11:00 +9°C° 0 mm 6 mps 749 mmHg 30%
    12:00 +10°C° 0 mm 6 mps 749 mmHg 28%
    13:00 +10°C° 0 mm 6 mps 749 mmHg 27%
    14:00 +11°C° 0 mm 6 mps 749 mmHg 26%
    15:00 +10°C° 0 mm 6 mps 749 mmHg 27%
    16:00 +9°C° 0 mm 5 mps 750 mmHg 28%
    17:00 +9°C° 0 mm 5 mps 750 mmHg 30%
    18:00 +8°C° 0 mm 5 mps 750 mmHg 31%
    19:00 +7°C° 0 mm 5 mps 751 mmHg 33%
    20:00 +6°C° 0 mm 4 mps 751 mmHg 35%
    21:00 +6°C° 0 mm 4 mps 751 mmHg 36%
    22:00 +7°C° 0 mm 3 mps 751 mmHg 37%
    23:00 +5°C° 0 mm 3 mps 752 mmHg 39%
    Show more